Theta_e
297 297 297 297 296 297 296 297 297 296 295 294 294 294 293 290 288 287 286 285 284 284 286 287 288 289 293 295 297 298 299 299 300 301 301 301 301 301 301 301 300 300 300 303
296 298 297 297 297 297 298 298 296 295 294 294 293 294 290 291 288 287 286 285 284 283 285 287 287 287 291 293 295 296 298 300 302 302 301 301 301 301 301 301 300 300 301 302
297 298 297 297 297 298 297 297 296 296 295 293 294 292 290 290 289 288 285 284 283 282 283 284 285 285 288 291 294 295 296 299 301 302 302 301 301 301 301 301 301 301 303 303
297 297 297 297 298 295 292 295 294 294 291 295 290 294 291 290 289 287 284 282 281 282 282 283 283 285 287 289 291 294 295 298 300 302 302 302 301 301 301 301 301 302 307 310
299 297 297 293 297 295 294 294 292 293 290 290 295 292 290 287 289 286 283 281 280 281 281 282 283 284 285 288 290 292 294 295 299 301 302 302 301 301 302 303 302 304 314 316
296 296 295 295 295 295 293 291 293 290 292 288 290 294 293 287 284 283 281 280 280 281 281 282 283 284 286 287 289 292 295 295 296 300 302 303 302 303 306 308 307 312 316 321
295 296 295 293 293 293 290 288 289 293 290 291 293 294 293 283 283 280 279 278 280 280 280 281 282 284 285 287 288 290 293 295 295 297 299 303 304 305 306 306 307 311 314 317
291 295 293 293 290 289 292 286 289 293 291 291 292 294 294 282 282 280 279 279 280 280 280 280 282 283 284 285 286 288 290 293 294 296 299 301 303 305 305 306 307 309 313 314
289 293 294 292 291 290 292 291 290 285 285 289 292 293 287 286 284 280 278 279 279 279 280 280 281 283 284 284 285 286 288 291 293 295 297 299 301 302 306 306 307 308 310 312
289 293 295 293 291 292 292 291 290 287 289 289 291 294 295 287 284 281 277 279 279 279 279 280 281 282 283 283 284 285 287 289 291 292 295 296 298 301 304 304 305 305 307 308
288 290 294 292 285 288 290 290 291 289 289 289 291 292 284 284 281 279 278 279 279 278 278 279 280 281 282 283 284 285 287 288 289 290 291 293 295 297 299 301 301 301 302 305
292 286 289 289 282 286 288 283 284 288 289 289 290 289 280 281 279 278 279 279 279 278 278 278 280 281 282 282 283 284 284 285 286 287 289 290 293 295 297 298 296 296 300 302
292 293 293 295 291 290 287 287 287 285 285 283 288 295 278 278 279 278 277 278 277 278 278 279 280 280 280 281 282 282 283 283 284 285 287 288 289 292 293 295 294 296 296 297
294 289 291 297 293 281 286 286 288 288 281 284 285 288 288 282 277 276 277 277 277 277 277 279 279 280 280 281 281 281 282 282 283 285 287 288 289 289 291 292 293 291 291 290
291 289 284 284 276 278 282 286 286 287 282 290 285 281 286 280 274 277 276 277 277 277 277 278 279 279 280 281 281 282 282 282 283 285 287 288 290 292 292 294 295 292 290 289
289 290 288 290 277 278 288 288 286 285 278 280 274 282 275 280 279 279 277 277 277 278 277 277 278 279 280 281 281 282 283 283 285 286 287 288 289 286 284 283 284 284 284 284
289 289 286 291 284 286 287 283 282 279 275 284 289 288 267 277 278 280 280 279 279 279 279 278 279 279 280 281 283 284 285 285 287 286 282 282 283 283 283 283 283 283 283 283
289 285 286 290 284 292 289 270 277 285 282 278 278 275 276 278 283 284 282 281 280 280 281 282 281 281 282 283 284 285 284 283 282 282 282 283 283 284 284 283 283 284 284 284
287 287 286 289 291 293 290 282 286 291 294 280 282 273 279 283 284 285 285 282 281 282 284 285 285 284 283 282 282 282 282 283 283 283 283 283 283 284 284 284 284 283 283 283
292 287 286 292 291 294 290 281 285 283 296 280 284 278 278 283 282 280 285 283 282 282 281 281 281 282 281 281 281 282 282 282 283 283 283 283 283 283 283 283 283 283 283 283
293 293 289 291 290 291 285 285 288 294 299 285 288 286 285 283 286 288 284 282 281 282 282 282 282 282 282 282 282 282 283 283 283 283 282 282 283 283 282 282 283 282 283 282
290 290 288 290 293 296 287 288 293 293 292 293 291 292 292 291 288 286 284 282 282 281 281 281 281 281 281 282 282 283 283 283 283 282 282 282 282 282 282 282 282 282 282 281
293 293 291 292 293 290 291 294 297 296 297 294 295 295 295 291 289 286 285 283 283 283 283 283 282 282 282 282 282 283 283 283 283 283 282 283 283 283 282 282 282 281 281 281
290 290 291 292 291 290 295 296 296 297 298 298 298 297 295 292 289 287 285 285 285 285 285 284 284 283 283 283 283 282 283 283 283 283 283 283 282 282 283 283 282 281 281 282
293 291 293 292 293 293 296 297 299 297 297 297 297 297 296 293 290 289 288 287 287 286 285 285 285 284 283 283 283 283 283 283 283 283 282 282 282 282 282 282 281 281 281 281
292 294 296 298 298 296 297 299 300 298 297 298 297 296 296 294 293 290 289 289 288 288 287 286 285 285 284 284 284 284 284 283 283 283 283 282 282 281 281 281 280 280 280 280
Wind_Speed
3 4 2 1 4 6 6 9 17 15 9 3 8 8 7 2 3 11 15 18 19 20 23 19 18 15 10 9 11 7 6 11 14 16 16 17 17 18 19 20 18 18 17 18
3 2 2 1 5 5 9 15 11 7 2 5 9 12 5 3 2 8 11 17 19 22 25 23 21 17 11 10 10 7 7 6 10 11 15 18 18 17 19 18 18 19 19 19
4 1 1 1 3 4 9 7 6 13 10 7 5 7 1 3 5 9 13 16 17 21 24 27 25 22 15 12 12 9 9 8 8 11 13 15 17 17 18 19 19 19 19 20
4 1 2 3 3 4 6 5 11 14 2 3 2 4 2 2 3 7 17 20 21 22 24 25 26 24 20 17 14 9 10 7 6 8 11 13 15 17 16 19 21 19 18 19
2 1 2 2 2 4 10 16 8 4 3 2 2 1 4 2 3 12 17 20 20 21 23 25 26 24 21 18 17 10 8 7 4 6 9 11 13 15 14 14 17 16 14 18
4 1 3 3 4 3 11 4 1 3 1 3 3 2 4 2 3 7 15 19 20 21 21 23 23 22 22 19 18 13 8 7 4 3 6 8 10 12 13 11 12 11 11 13
5 2 2 4 5 2 7 5 4 6 4 4 2 3 7 4 5 3 11 20 20 19 20 22 25 26 24 22 19 15 10 7 6 3 2 5 7 9 9 10 9 8 9 11
4 6 2 3 4 3 3 2 4 5 3 6 4 5 4 5 7 6 16 14 15 18 20 21 23 24 24 23 22 19 15 11 8 5 2 1 5 5 6 6 6 6 7 10
3 5 2 3 2 4 3 4 2 2 2 3 3 4 3 4 5 8 18 13 18 19 19 20 21 21 22 22 21 19 16 13 9 5 3 1 3 4 4 5 5 6 9 12
4 3 2 3 2 1 1 4 1 2 4 5 6 5 3 3 9 12 12 15 19 18 18 18 19 20 19 19 17 16 16 14 10 6 5 6 6 6 6 7 9 11 13 14
4 3 2 3 1 5 1 1 1 2 3 3 4 6 4 4 4 8 11 17 19 18 16 16 16 16 16 15 14 15 14 11 9 7 9 10 13 12 12 14 17 17 17 16
5 4 3 6 4 2 2 5 3 3 4 3 2 7 4 5 4 4 13 16 15 13 13 13 13 13 14 13 12 13 11 11 10 10 12 16 18 18 19 21 24 26 27 29
6 1 4 5 2 1 2 3 3 1 3 4 3 6 1 2 2 8 9 15 14 11 11 11 11 12 12 11 11 12 11 12 12 13 17 21 25 26 28 30 36 38 40 42
6 2 6 6 6 3 2 4 5 3 3 3 6 9 7 7 6 9 10 10 10 10 10 9 9 10 10 10 11 12 14 15 17 20 23 28 35 40 43 43 42 43 42 43
3 3 2 5 3 2 4 7 5 8 5 5 4 5 12 7 4 5 7 8 9 10 9 8 8 9 10 9 11 13 15 20 27 35 38 41 41 42 43 43 39 38 39 39
1 1 1 4 1 2 5 9 8 6 4 8 2 8 5 8 7 6 8 10 10 10 7 6 7 9 11 11 13 15 21 27 33 37 39 39 40 40 41 41 40 38 39 37
4 3 1 5 2 3 6 8 7 3 4 5 3 6 1 5 9 10 10 8 9 10 8 6 8 10 12 15 17 21 23 26 31 34 38 38 36 36 36 36 35 34 33 32
5 4 2 4 4 4 6 2 3 6 7 8 3 4 5 2 7 10 4 5 11 11 12 10 11 12 13 16 18 19 23 27 30 32 33 32 32 32 31 29 29 28 27 27
2 4 1 1 2 7 2 5 7 6 6 10 8 3 7 6 2 4 3 7 14 16 15 15 14 15 16 18 20 23 24 25 27 28 28 28 27 27 26 25 25 24 23 22
5 5 3 2 2 5 7 4 7 3 4 11 13 9 12 13 2 4 12 12 15 16 15 15 16 16 16 18 19 21 22 24 24 25 24 23 22 22 22 21 20 19 18 19
3 3 4 3 4 9 5 6 9 5 6 17 29 28 26 6 5 13 18 17 17 18 18 18 18 18 18 18 17 18 19 20 20 20 20 20 19 17 17 16 16 15 14 14
7 8 4 3 3 7 12 8 7 5 2 24 31 33 31 14 15 19 19 20 19 19 19 18 17 16 16 16 15 14 15 16 16 16 16 15 14 13 12 11 11 11 10 9
2 6 5 9 6 2 34 5 19 5 6 22 32 32 28 23 22 25 24 23 21 19 19 19 18 16 16 15 15 12 13 13 13 12 11 11 10 10 10 9 8 7 6 6
5 6 3 3 3 9 22 34 12 12 8 23 27 30 32 28 26 27 27 26 25 24 23 22 21 20 18 16 15 14 11 11 11 12 11 11 10 9 7 6 5 4 2 2
3 7 5 6 9 8 21 29 34 20 13 22 27 29 30 29 29 30 29 27 25 24 24 23 21 19 17 16 16 15 14 13 12 11 11 10 9 7 5 4 4 3 2 2
10 8 6 6 7 3 5 7 31 33 24 25 31 32 33 30 29 31 31 28 27 27 26 25 23 22 21 20 19 17 16 16 16 15 13 10 9 9 8 7 6 5 6 6
Wind_Direction
16 62 309 307 199 230 262 265 272 277 271 276 255 266 261 243 357 2 1 346 339 341 342 339 332 338 328 298 285 288 273 242 236 223 225 238 245 253 259 260 259 255 251 236
16 212 189 165 256 274 282 281 281 279 223 297 279 277 219 196 119 27 1 340 338 343 351 348 346 345 351 339 319 309 278 241 223 222 222 236 251 261 266 263 257 253 249 232
183 187 73 113 283 332 305 245 302 293 319 274 282 288 299 211 167 17 3 343 343 346 347 349 349 351 354 353 340 313 301 252 225 223 227 236 253 263 270 261 256 254 246 233
229 342 28 329 282 83 309 202 314 300 10 292 96 287 271 174 264 12 348 350 343 344 351 352 351 355 2 358 351 329 299 278 238 227 229 240 255 264 268 265 259 252 242 234
253 5 41 333 216 122 249 326 302 288 168 24 200 33 266 25 334 334 338 342 343 344 349 354 356 357 1 4 2 353 330 304 262 227 232 244 260 269 265 256 260 248 243 231
269 42 137 245 308 180 309 348 264 37 99 13 247 134 269 213 226 310 329 339 343 345 349 355 359 1 5 9 7 5 346 335 315 261 239 250 259 254 244 246 263 251 240 228
337 139 92 33 345 52 8 357 341 355 7 240 240 237 261 198 220 240 320 334 348 345 351 357 3 6 8 9 9 9 2 349 354 348 298 241 259 248 229 242 248 250 230 217
79 325 56 2 130 194 343 103 130 270 315 294 298 240 284 200 220 289 340 340 345 355 357 3 8 7 8 9 10 12 13 11 16 25 20 357 264 244 202 235 231 224 217 206
105 285 123 91 108 115 299 44 199 106 229 303 249 260 160 230 271 316 339 342 352 357 3 9 10 11 8 9 10 11 14 18 21 29 60 120 175 170 189 214 206 191 179 165
196 348 149 133 65 23 139 154 77 40 11 311 297 287 259 321 337 328 330 334 346 357 5 13 15 15 14 11 12 18 18 23 28 42 90 111 116 128 135 149 155 155 158 160
132 125 257 74 181 179 335 329 101 126 149 209 305 280 180 196 263 305 316 335 343 352 7 17 22 21 21 19 18 25 28 37 55 78 99 112 108 114 125 132 131 136 138 142
183 139 270 220 244 214 138 187 160 129 249 227 238 276 185 172 234 310 334 336 343 352 12 24 26 28 30 35 35 40 46 51 64 86 106 112 112 115 121 121 123 125 123 129
185 216 352 349 13 83 202 194 196 140 60 215 160 279 166 125 46 30 4 339 345 356 20 30 32 38 40 46 51 57 61 71 84 100 108 113 115 116 114 112 117 114 116 114
131 154 181 199 215 135 293 213 188 181 126 194 227 289 301 342 8 357 22 357 357 6 25 33 35 41 45 55 64 76 81 88 95 100 106 109 110 110 109 109 106 103 101 99
114 221 162 262 191 142 225 238 195 202 226 179 272 245 299 309 298 347 22 25 27 24 30 33 38 48 52 64 82 89 100 106 111 110 109 107 109 108 107 105 101 100 102 103
76 267 186 282 95 193 266 250 225 228 242 272 298 283 220 302 335 19 27 33 46 43 35 43 58 71 78 81 91 106 114 116 115 111 109 106 103 103 104 107 109 110 107 106
141 142 77 274 320 317 323 222 184 203 227 163 175 228 21 336 350 2 16 39 57 67 52 59 85 93 100 101 108 118 116 114 111 113 110 109 108 108 108 109 109 107 106 105
139 112 125 275 3 8 243 206 171 209 223 207 294 234 179 168 328 325 353 65 92 89 86 77 82 91 102 114 122 123 123 120 117 112 111 112 111 108 107 107 105 104 105 104
115 120 117 114 250 290 357 222 184 169 280 183 187 188 148 131 351 300 168 118 106 107 111 113 112 113 116 118 120 118 115 113 112 112 113 112 110 108 107 107 108 105 102 100
108 95 117 166 142 219 235 241 194 145 312 181 171 173 157 151 94 245 179 153 137 132 131 129 126 125 125 127 126 123 121 119 117 114 111 109 107 106 106 104 102 100 99 94
161 182 186 193 254 285 225 163 148 79 234 168 179 171 163 176 174 159 170 167 157 149 145 141 136 132 127 124 125 127 126 124 119 119 118 117 115 112 108 108 105 100 94 88
169 157 191 152 216 292 154 115 163 216 140 176 177 179 182 183 169 167 170 173 167 163 158 151 147 143 141 138 140 142 137 133 130 129 128 125 120 120 119 112 107 105 98 91
258 190 177 190 214 232 185 214 196 207 203 183 184 185 182 178 176 174 174 174 172 170 166 164 161 163 162 158 156 162 156 147 140 137 137 137 139 142 141 136 122 116 108 93
239 180 209 54 264 226 218 220 217 217 218 196 192 187 186 185 179 179 180 181 181 180 178 177 178 177 178 176 172 170 174 167 166 168 166 165 163 160 153 148 142 133 100 53
187 148 193 262 275 266 254 229 225 216 218 200 197 197 194 191 187 187 187 191 190 188 188 190 189 187 188 191 190 189 188 191 191 189 185 184 183 181 184 191 196 213 243 307
189 190 178 223 229 201 270 263 226 216 215 206 200 197 200 201 199 193 195 194 195 196 197 200 199 199 200 203 206 206 205 206 208 207 202 201 209 216 219 225 239 261 267 258